TimeAKST,TemperatureF,Dew PointF,Humidity,Sea Level PressureIn,VisibilityMPH,Wind Direction,Wind SpeedMPH,Gust SpeedMPH,PrecipitationIn,Events,Conditions,WindDirDegrees,DateUTC
12:53 AM,39.0,39.0,100,30.43,0.8,Calm,Calm,-,0.00,Rain,Light Rain,0,2013-12-06 09:53:00
1:53 AM,39.9,39.9,100,30.43,0.8,South,4.6,-,0.00,Rain,Light Rain,180,2013-12-06 10:53:00
2:53 AM,39.2,39.2,100,30.43,0.8,Calm,Calm,-,N/A,Rain,Light Rain,0,2013-12-06 11:53:00
3:53 AM,39.9,39.9,100,30.43,0.8,Calm,Calm,-,0.01,Rain,Light Rain,0,2013-12-06 12:53:00
4:53 AM,41.0,41.0,100,30.43,0.8,Calm,Calm,-,0.01,Rain,Light Rain,0,2013-12-06 13:53:00
5:53 AM,39.9,39.9,100,30.43,0.8,Calm,Calm,-,0.00,Rain,Light Rain,0,2013-12-06 14:53:00
6:53 AM,39.9,39.9,100,30.43,0.8,Calm,Calm,-,0.01,Rain,Light Rain,0,2013-12-06 15:53:00
7:53 AM,39.0,39.0,100,30.43,0.8,ESE,3.5,-,0.01,Rain,Light Rain,110,2013-12-06 16:53:00
8:53 AM,42.1,42.1,100,30.43,0.8,NE,8.1,-,0.00,Rain,Light Rain,50,2013-12-06 17:53:00
9:53 AM,42.1,42.1,100,30.45,0.8,NE,4.6,-,0.00,Rain,Light Rain,40,2013-12-06 18:53:00
10:53 AM,42.1,42.1,100,30.46,0.8,Calm,Calm,-,0.00,Rain,Light Rain,0,2013-12-06 19:53:00
11:53 AM,42.1,42.1,100,30.46,0.5,ESE,3.5,-,0.00,Fog-Rain,Light Rain,120,2013-12-06 20:53:00
12:53 PM,43.0,43.0,100,30.46,0.5,Calm,Calm,-,0.00,Fog-Rain,Light Rain,0,2013-12-06 21:53:00
1:01 PM,42.8,42.8,100,30.45,2.5,SE,6.9,-,0.00,Rain,Light Rain,130,2013-12-06 22:01:00
1:46 PM,42.8,42.8,100,30.46,0.5,SE,6.9,-,0.01,Fog,Fog,130,2013-12-06 22:46:00
1:53 PM,42.1,42.1,100,30.46,0.5,ESE,8.1,-,0.01,Fog,Fog,120,2013-12-06 22:53:00
2:29 PM,42.8,42.8,100,30.45,4.0,ESE,6.9,-,0.00,,Overcast,110,2013-12-06 23:29:00
2:53 PM,42.1,42.1,100,30.45,4.0,ESE,9.2,-,0.00,,Overcast,110,2013-12-06 23:53:00
3:00 PM,42.8,42.8,100,30.45,10.0,ESE,10.4,-,N/A,,Overcast,110,2013-12-07 00:00:00
3:09 PM,42.8,42.8,100,30.45,10.0,ESE,9.2,-,N/A,,Overcast,120,2013-12-07 00:09:00
3:53 PM,42.1,41.0,96,30.45,10.0,ESE,6.9,-,N/A,,Overcast,120,2013-12-07 00:53:00
4:53 PM,42.1,41.0,96,30.45,10.0,ESE,9.2,-,N/A,,Overcast,110,2013-12-07 01:53:00
5:53 PM,41.0,41.0,100,30.47,10.0,East,12.7,-,N/A,,Overcast,100,2013-12-07 02:53:00
6:53 PM,41.0,39.9,96,30.46,10.0,ENE,10.4,-,N/A,,Overcast,70,2013-12-07 03:53:00
7:29 PM,41.0,39.2,93,30.46,1.2,East,12.7,-,N/A,,Overcast,90,2013-12-07 04:29:00
7:36 PM,41.0,39.2,93,30.46,1.2,East,12.7,-,N/A,,Overcast,90,2013-12-07 04:36:00
7:53 PM,41.0,39.9,96,30.46,1.8,East,12.7,-,N/A,,Overcast,90,2013-12-07 04:53:00
8:12 PM,39.2,39.2,100,30.46,1.5,East,11.5,-,N/A,,Overcast,100,2013-12-07 05:12:00
8:22 PM,39.2,39.2,100,30.46,3.0,ESE,10.4,-,N/A,,Overcast,110,2013-12-07 05:22:00
8:53 PM,39.9,39.0,97,30.47,3.0,East,8.1,-,N/A,,Overcast,100,2013-12-07 05:53:00
9:00 PM,39.2,39.2,100,30.46,2.0,ESE,8.1,-,N/A,,Overcast,120,2013-12-07 06:00:00
9:53 PM,39.9,39.0,97,30.47,6.0,ESE,11.5,-,N/A,,Overcast,110,2013-12-07 06:53:00
10:19 PM,39.2,39.2,100,30.47,2.0,ESE,11.5,-,N/A,,Overcast,110,2013-12-07 07:19:00
10:53 PM,39.9,39.0,97,30.47,2.0,ESE,12.7,-,N/A,,Overcast,110,2013-12-07 07:53:00
11:07 PM,39.2,39.2,100,30.46,3.0,ESE,10.4,-,N/A,,Overcast,110,2013-12-07 08:07:00
11:53 PM,39.9,39.0,97,30.47,7.0,ESE,10.4,-,N/A,,Overcast,110,2013-12-07 08:53:00